Terminal Aerodrome Forecast
Issued by NWS Central Illinois

Home | Current Version | Previous Version | Text Only | Print | Product List | Glossary On
Versions: 1 2 3 4 5 6 7 8 9 10 11 12 13 14 15 16 17 18 19 20 21
000
FTUS43 KILX 260100 AAB
TAFPIA
TAF AMD
KPIA 260144Z 2602/2624 02010G18KT P6SM BKN050
     FM260300 01009KT P6SM SCT050
     FM260800 33004KT P6SM SCT015 BKN050
     FM261400 25007KT P6SM BKN025
     FM261900 20008KT P6SM OVC025=

USA.gov is the U.S. government's official web portal to all federal, state and local government web resources and services.